Hulianwang W. Digui 10-08

operational
NORAD ID: 65312 Int'l Des: 2025-187 Owner: ZXW Country: CN Constellation: xingwang
LEOCIRCULAR

About Hulianwang W. Digui 10-08

Description loading...

Live Position

Loading 3D Globe...

Upcoming Passes

Altitude History

Altitude vs Time

uPlot chart will show altitude changes over time

Two-Line Element Set

1 65312U 25187H 25298.22721766 -.00000046 00000-0 12247-3 0 9999
2 65312 50.0049 330.6591 0000920 288.8845 71.1939 13.57368883 8413
Epoch: Oct 25, 2025 • Age: 11 hours

Current Status

Altitude 1048.0 km
Velocity 7.33 km/s
Sub-Earth Point 35.46°N, 86.7°E
Launch Date Aug 25, 2025
Age 0.1 years
Type other

Technical Details

Classification Payload
Mass 800.00 kg
Dry Mass 800.00 kg
Total Mass 800.00 kg
Length 3.00 m
Diameter 1.00 m
Span 10.00 m
Shape Box + 2 Pan
Manufacturer SECM
Bus Type Guowang S
Phase Status In Orbit
Owner/State ZXW/CN

Large Constellations

Loading constellations...